Location: Carano
(41.5833°N, 12.7167°E)
Time: 01:46:28
(UTC+00:00)

Daily predictions for brighter satellites

Satellite Brightness Start Highest point End
(mag) Time Altitude Azimuth Time Altitude Azimuth Time Altitude Azimuth
USA 267 4.3 01:44:36 10° NE 01:48:35 40° NE 01:48:35 40° NE
CENTAUR R/B 4.5 01:57:19 10° NNW 02:04:32 35° NE 02:12:23 10° ESE
Cosmos 2360 Rocket 4.3 02:22:23 17° SE 02:22:23 17° SE 02:23:36 10° SE
USA 234 3.5 02:17:33 10° ESE 02:24:00 65° NE 02:24:09 65° NNE
CZ-4C R/B 4.0 02:25:01 20° ESE 02:25:12 20° ESE 02:28:58 10° ENE
Lacrosse 5 3.0 02:40:09 40° NE 02:40:09 40° NE 02:44:36 10° ESE
Cosmos 2333 Rocket 3.6 02:41:26 10° N 02:46:45 36° ENE 02:52:01 10° ESE
Cosmos 2219 Rocket 3.4 02:56:25 10° N 03:01:45 40° ENE 03:07:03 10° SE
CZ-2C R/B 2.8 02:58:14 10° NNE 03:02:01 56° NNE 03:02:01 56° NNE
Milstar 3 Cent rocket 3.9 03:04:56 17° SSE 03:04:56 17° SSE 03:06:55 10° SE
Cosmos 1606 4.2 03:12:56 31° NNE 03:12:56 31° NNE 03:15:03 10° N
Sich 1 4.1 03:09:58 10° N 03:14:14 44° ENE 03:18:23 10° SSE
USA 238 DEB 3.9 03:08:46 10° NNW 03:16:06 81° NE 03:23:42 10° SE
USA 238 3.9 03:08:53 10° NNW 03:16:13 80° NE 03:23:49 10° SE
COSMOS 2428 3.7 03:12:39 10° NNW 03:18:09 46° ENE 03:23:36 10° SE
ATLAS 5 CENTAUR R/B 2.2 03:19:17 41° SE 03:19:38 42° ESE 03:23:38 10° NE
S3M 4.2 03:21:13 47° WNW 03:21:13 47° WNW 03:26:43 10° N
Cosmos 909 Rocket 4.1 03:18:01 37° SSW 03:20:51 77° ESE 03:27:07 10° NE
ARIANE 5 R/B 4.3 03:21:30 10° NNW 03:23:22 19° NNW 03:23:22 19° NNW
Helios 1B 4.4 03:25:09 48° SSE 03:26:22 90° NNW 03:30:43 10° NNW
Cosmos 1745 Rocket 4.3 03:21:15 10° NNW 03:26:32 44° WNW 03:26:32 44° WNW
USA 267 4.3 03:27:57 10° NE 03:33:33 32° NNW 03:35:57 25° NW
FENGYUN 3A 3.6 03:30:17 10° NNE 03:35:46 88° ESE 03:40:06 17° SSW
Cosmos 2322 3.6 03:33:06 10° NNW 03:38:49 84° WSW 03:44:27 10° SSE
Cosmos 1709 Rocket 3.9 03:32:47 10° NNW 03:39:05 65° W 03:45:22 10° S
H-2A R/B 2.6 03:36:10 10° SSE 03:40:19 57° ENE 03:44:24 10° N
Cosmos 1151 Rocket 4.0 03:36:59 10° SSE 03:41:07 46° E 03:45:14 10° NNE
NOSS 3-2 (A) 4.1 03:37:13 10° NW 03:44:51 62° WSW 03:53:19 10° SSE
COSMOS 2487 4.4 03:50:12 18° NNW 03:50:12 18° NNW 03:51:26 10° N
Cosmos 2344 4.0 03:46:42 31° W 03:49:35 42° NW 03:57:07 10° NNE
Cosmos 1633 Rocket 3.7 03:48:02 10° N 03:52:23 57° E 03:56:40 10° SSE
Cosmos 2251 Rocket 4.1 03:53:53 35° W 03:54:52 37° WNW 03:59:52 10° N
Geosat 3.9 03:50:07 10° NNE 03:55:08 69° WNW 03:58:04 25° SW
CENTAUR R/B 3.2 03:47:44 10° NW 03:56:01 75° WSW 04:04:55 10° SSE
Cosmos 614 Rocket 4.1 03:54:14 33° SW 03:56:19 53° WNW 04:01:27 10° N
Cosmos 1933 3.2 03:58:06 25° SSW 04:00:16 62° W 04:04:18 10° N
Meteor 1-20 Rocket 4.2 03:54:44 10° N 04:00:29 84° W 04:06:17 10° S
OAO 3 Rocket 4.0 04:00:08 28° SW 04:01:52 38° S 04:06:20 10° ESE
Cosmos 2360 Rocket 3.6 04:04:24 19° SW 04:04:24 19° SW 04:06:25 10° SSW
Lacrosse 4 Rocket 3.8 04:05:34 11° SSW 04:05:34 11° SSW 04:05:42 10° SSW
ISS -2.4 04:00:40 20° NNW 04:02:27 35° NNE 04:05:35 10° E
H-2A R/B 3.9 03:52:49 22° WSW 04:03:56 47° SSW 04:09:03 10° ESE
ALOS 2.4 03:59:36 10° N 04:04:07 49° WNW 04:07:02 20° SW
USA 234 3.7 04:01:16 10° SSE 04:07:13 37° SW 04:11:34 18° WNW
Cosmos 2237 Rocket 3.4 04:04:06 10° NNW 04:09:32 44° ENE 04:14:53 10° SE
RESURS DK-1 4.3 04:06:46 10° S 04:10:23 30° ESE 04:14:01 10° NE
Cosmos 407 Rocket 3.4 04:06:16 10° SSW 04:11:21 69° WNW 04:16:30 10° NNE
Meteor 1-31 Rocket 2.7 04:08:04 10° NNE 04:11:57 88° ESE 04:15:46 10° SSW
Iridium 51 3.9 04:09:12 10° N 04:12:54 71° W 04:16:23 10° S
CZ-4C R/B 2.2 04:10:13 25° WSW 04:12:59 53° NW 04:18:42 10° NNE
USA 276 3.9 04:16:02 19° NW 04:17:06 22° NNW 04:19:41 10° NE
Nadezhda 1 Rocket 4.3 04:12:34 10° S 04:18:39 71° E 04:24:51 10° NNE
NOSS 3-4 (A) 3.5 04:16:30 17° SW 04:20:58 58° NW 04:27:09 10° NNE
NOSS 3-4 (C) 3.5 04:16:34 17° SW 04:21:05 59° NW 04:27:15 10° NNE
Lacrosse 5 2.4 04:19:24 17° WNW 04:22:47 38° SW 04:27:26 10° SSE
Cosmos 1190 Rocket 4.0 04:17:42 10° SSW 04:22:59 72° WNW 04:28:19 10° NNE
Cosmos 1328 Rocket 3.4 04:18:56 10° SSW 04:23:13 71° W 04:27:31 10° N
Cosmos 1515 Rocket 3.9 04:21:05 10° S 04:25:23 67° E 04:29:44 10° NNE
Cosmos 192 4.4 04:20:41 10° NNW 04:25:31 54° WSW 04:30:20 10° S
Cosmos 2227 Rocket 3.3 04:20:31 10° S 04:25:56 48° ESE 04:31:22 10° NE
NOSS 3-2 (C) 4.3 04:19:18 10° NW 04:26:52 55° WSW 04:35:13 10° SSE
GPS 2-04 Rocket1 3.7 04:26:32 18° SW 04:28:32 30° S 04:31:55 10° ESE
Cosmos 676 Rocket 4.2 04:24:53 10° SSW 04:30:12 80° ESE 04:35:30 10° NNE
SJ-12 3.8 04:26:28 10° N 04:30:31 68° WNW 04:34:31 10° SSW
Cosmos 2333 Rocket 2.8 04:25:48 10° NW 04:30:57 34° WSW 04:36:04 10° SSW
SL-16 R/B 4.4 04:27:39 10° N 04:32:21 26° NE 04:37:02 10° ESE
Cosmos 1437 Rocket 3.1 04:29:02 10° SSW 04:32:57 45° WNW 04:36:50 10° N
Meteor PRIRODA 4.1 04:29:29 10° NNE 04:33:12 66° E 04:36:54 10° S
Cosmos 1484 Rocket 3.9 04:30:37 10° NNW 04:33:35 23° WNW 04:35:27 16° WSW
ATLAS 2AS CENTAUR R/B 3.0 04:28:11 10° SW 04:36:06 74° NW 04:43:56 10° NNE
Cosmos 1470 Rocket 3.4 04:32:45 10° N 04:37:07 81° W 04:41:25 10° S
CZ-4B R/B 3.3 04:33:03 10° NNE 04:37:36 81° ESE 04:42:05 10° S
CZ-4B R/B 1.0 04:35:52 10° S 04:38:57 72° WSW 04:42:00 10° NNW
COSMO-SKYMED 1 2.5 04:35:31 10° S 04:39:49 64° W 04:44:09 10° NNW
CZ-2C R/B 4.1 04:38:46 10° NW 04:40:29 12° WNW 04:41:25 11° WNW
Cosmos 2297 Rocket 2.3 04:35:24 10° SSW 04:41:02 82° ESE 04:46:43 10° NNE
Cosmos 2327 Rocket 4.4 04:36:04 10° N 04:42:11 85° W 04:48:15 10° S
Cosmos 1782 3.3 04:39:13 10° SSW 04:42:54 37° WNW 04:46:36 10° N
deb Chang Zheng 4 3.7 04:38:54 10° NNE 04:43:13 80° ESE 04:47:31 10° S
Envisat 3.5 04:38:25 10° NNE 04:43:28 64° E 04:48:29 10° S
Cosmos 2219 Rocket 2.9 04:40:40 10° NW 04:45:31 30° WSW 04:50:21 10° SSW
Cosmos 1295 Rocket 4.5 04:42:15 10° N 04:48:22 90° W 04:54:27 10° S
Cosmos 1140 Rocket 4.0 04:44:04 10° SW 04:48:53 38° WNW 04:53:43 10° N
ERS-2 2.9 04:49:43 10° SSE 04:53:17 57° ENE 04:56:52 10° N
Cosmos 1500 3.2 04:50:21 10° NNW 04:54:06 61° W 04:57:51 10° S
Cosmos 1980 3.7 04:48:49 10° NNW 04:54:29 78° WSW 05:00:08 10° SSE
Cosmos 1933 Rocket 3.5 04:53:04 10° NNW 04:57:32 75° W 05:01:59 10° S
SeaSat 1 2.7 04:54:13 10° S 04:58:58 50° WSW 05:03:47 10° NW
MOS 1 Rocket 3.7 04:55:03 10° SSW 04:59:05 36° W 05:03:19 10° NNW
Cosmos 2228 Rocket 3.6 04:55:08 10° S 04:59:41 70° E 05:04:14 10° NNE
Cosmos 2074 Rocket 4.4 04:54:04 10° NNW 04:59:45 39° W 05:05:25 10° SSW
COSMOS 2428 3.6 04:57:29 10° NW 05:02:07 26° WSW 05:06:45 10° SSW
BREEZE M DEB (TANK) 3.4 05:00:13 10° NW 05:03:27 69° NNE 05:13:59 10° ESE
ATLAS 5 CENTAUR R/B 2.9 05:01:20 10° W 05:04:27 21° NW 05:07:54 10° NNE
BREEZE-M DEB (TANK) 4.1 05:02:20 10° NW 05:04:58 19° N 05:06:48 10° NE
Cosmos 2154 Rocket 4.2 05:01:18 10° NNW 05:07:20 53° W 05:13:24 10° SSW
